Regional Weather Roundup
Issued by NWS Midland/Odessa, TX

Home | Current Version | Previous Version | Text Only | Print | Product List | Glossary On
Versions: 1 2 3 4 5 6 7 8 9 10 11 12 13 14 15 16 17 18 19 20 21 22 23 24 25 26 27 28 29 30 31 32 33 34 35 36 37 38 39 40 41 42 43 44 45 46 47 48 49 50
986
ASUS44 KMAF 290610
RWRMAF
MIDLAND AREA WEATHER ROUNDUP
NATIONAL WEATHER SERVICE MIDLAND TX
100 AM CDT SUN MAY 29 2016

...IN SOUTHWEST TEXAS AND SOUTHEAST NEW MEXICO...

CITY           SKY/WX    TMP DP  RH WIND       PRES   REMARKS
ALPINE         CLEAR     69  59  69 SW5       30.11S
ANDREWS        FAIR      72  59  65 S5        30.02S
ARTESIA        CLEAR     68  27  21 S8        30.00S
BIG SPRING     CLOUDY    75  58  55 E10       30.05R
CARLSBAD       CLEAR     71  54  54 S5        29.97F
DRYDEN           N/A     72  68  87 NE6       29.93S
FORT STOCKTON  NOT AVBL
GUAD PASS      NOT AVBL
HOBBS          CLEAR     73  59  60 SE10      30.04S
MARFA          CLEAR     65  54  67 NW3       30.10R
MIDLAND AIRPK  CLEAR     80  64  59 S14       30.00S
MIDLAND INTL   CLEAR     78  63  59 SE13      30.00F
ODESSA         CLEAR     78  63  59 SE12      30.01F
PECOS          CLEAR     76  64  65 E10       29.94S
PRESIDIO       FAIR      80  62  52 NE9       29.92R
SEMINOLE       CLEAR     69  55  60 E13G18    30.05R
SNYDER           N/A     63  59  86 E9G17     30.07R
WINK           NOT AVBL
$$
...OTHER STATIONS IN TEXAS...

CITY           SKY/WX    TMP DP  RH WIND       PRES   REMARKS
ABILENE        CLOUDY    77  69  76 E5        30.02R
AMARILLO       CLEAR     61  49  64 SE12      30.08S
AUSTIN         TSTM      76  74  93 S10       30.04F
BROWNSVILLE    CLOUDY    81  77  88 SE10      29.97S
CORPUS CHRISTI PTCLDY    79  75  87 SE12      29.96F
DALLAS FTW     CLOUDY    79  72  79 S7        30.03R
DEL RIO        CLEAR     80  75  84 E12       29.90S
EL PASO        PTCLDY    72   3   6 N6        29.98S
HOUSTON INT    MOCLDY    73  72  96 CALM      30.03F
LUBBOCK        PTCLDY    64  54  69 SE6       30.04S
SAN ANGELO     MOCLDY    73  61  65 S10G18    29.98F
SAN ANTONIO    TSTM      77  73  87 E9        30.04R
WACO           CLOUDY    78  71  79 SE9       30.00F
WICHITA FALLS  NOT AVBL
$$
...OTHER LOCATIONS IN NEW MEXICO...

CITY           SKY/WX    TMP DP  RH WIND       PRES   REMARKS
ALAMAGORDO     CLEAR     64   9  11 E9        30.01F
ALBUQUERQUE    MOCLDY    68  23  18 N7        30.10R
CANNON AFB     CLEAR     62  49  61 SE13      30.08S
CLOVIS         CLEAR     63  46  55 E13       30.08S
HOLLOMAN AFB   PTCLDY    62  10  13 E10       30.00S
ROSWELL        CLEAR     68  22  17 W3        30.01R
RUIDOSO          N/A     57   9  14 SW3       30.23S
SANTA FE       PTCLDY    55  21  26 NE6       30.16R
TRUTH OR CONSE CLEAR     64   8  11 NW7       30.04S
TUCUMCARI      CLEAR     64  42  44 SE5       30.04S
$$




USA.gov is the U.S. government's official web portal to all federal, state and local government web resources and services.